Weather History for Hillsdale, MI

Change the Weather History Date:

Thursday, April 10, 2014

  Actual Average Record
Temperature  
Mean Temperature 56 °F -  
Max Temperature 67 °F 52 °F 82 °F (2011)
Min Temperature 46 °F 29 °F 17 °F (1989)
Degree Days  
Heating Degree Days 8    
Growing Degree Days 6 (Base 50)    
Moisture  
Dew Point 39 °F    
Average Humidity 58    
Maximum Humidity 94    
Minimum Humidity 35    
Precipitation  
Precipitation 0.00 in - - ()
Sea Level Pressure  
Sea Level Pressure 29.82 in    
Wind  
Wind Speed 12 mph (SW)    
Max Wind Speed 23 mph    
Max Gust Speed 37 mph    
Visibility 10 miles    
Events Rain    
Averages and records for this station are not official NWS values.
T = Trace of Precipitation, MM = Missing Value Source: NWS Daily Summary

Daily Weather History Graph

Daily Weather History Graph

Search for Another Location

Airport:

Trip Planner

Search our weather history database for the weather conditions in past years. The results will help you decide how hot, cold, wet, or windy it might be!

Date:

Astronomy

Apr. 10, 2014 Rise Set
Actual Time 7:06 AM EDT 8:13 PM EDT
Civil Twilight 6:37 AM EDT 8:42 PM EDT
Nautical Twilight 6:03 AM EDT 9:16 PM EDT
Astronomical Twilight 5:27 AM EDT 9:52 PM EDT
Moon 3:53 PM EDT (4/10) 4:32 AM EDT (4/10)
Length of Visible Light 14h 05m
Length of Day
13h 07m
Waxing Gibbous, 79% of the Moon is Illuminated
Apr 10
Waxing Gibbous
Apr 15
Full
Apr 22
Last Quarter
Apr 29
New
May 6
First Quarter

Hourly Weather History & Observations

Time (EDT) Temp. Dew Point Humidity Pressure Visibility Wind Dir Wind Speed Gust Speed Precip Events Conditions
12:15 AM 48.9 °F 34.9 °F 58% 29.93 in 10.0 mi SSW 9.2 mph - N/A   Clear
12:34 AM 48.4 °F 34.5 °F 59% 29.93 in 10.0 mi SW 6.9 mph - N/A   Clear
12:55 AM 48.6 °F 34.5 °F 58% 29.93 in 10.0 mi SW 6.9 mph - N/A   Clear
1:15 AM 49.3 °F 34.7 °F 57% 29.92 in 10.0 mi SW 10.4 mph 17.3 mph N/A   Scattered Clouds
1:34 AM 50.2 °F 34.9 °F 56% 29.92 in 10.0 mi SW 10.4 mph 19.6 mph N/A   Scattered Clouds
1:55 AM 50.5 °F 34.5 °F 54% 29.92 in 10.0 mi SW 10.4 mph 17.3 mph N/A   Scattered Clouds
2:15 AM 50.2 °F 34.3 °F 55% 29.91 in 10.0 mi SW 11.5 mph 17.3 mph N/A   Scattered Clouds
2:34 AM 49.6 °F 34.3 °F 56% 29.90 in 10.0 mi SW 10.4 mph 18.4 mph N/A   Scattered Clouds
2:55 AM 49.3 °F 34.2 °F 56% 29.90 in 10.0 mi SW 8.1 mph - N/A   Clear
3:14 AM 49.3 °F 34.0 °F 56% 29.89 in 10.0 mi SSW 9.2 mph - N/A   Clear
3:35 AM 48.6 °F 34.2 °F 58% 29.88 in 10.0 mi SSW 10.4 mph - N/A   Clear
3:55 AM 48.4 °F 34.0 °F 58% 29.87 in 10.0 mi SSW 6.9 mph - N/A   Clear
4:14 AM 47.8 °F 34.0 °F 59% 29.87 in 10.0 mi SSW 8.1 mph - N/A   Clear
4:35 AM 47.8 °F 34.2 °F 59% 29.87 in 10.0 mi SSW 11.5 mph - N/A   Clear
4:55 AM 47.7 °F 34.0 °F 59% 29.86 in 10.0 mi SSW 10.4 mph - N/A   Clear
5:14 AM 47.1 °F 34.2 °F 61% 29.86 in 10.0 mi SSW 9.2 mph - N/A   Clear
5:35 AM 46.8 °F 34.2 °F 62% 29.85 in 10.0 mi SSW 9.2 mph - N/A   Clear
5:55 AM 46.8 °F 34.0 °F 61% 29.84 in 10.0 mi SSW 10.4 mph - N/A   Clear
6:14 AM 47.5 °F 33.6 °F 59% 29.84 in 10.0 mi SSW 10.4 mph 19.6 mph N/A   Clear
6:35 AM 47.5 °F 33.6 °F 59% 29.83 in 10.0 mi SSW 10.4 mph - N/A   Clear
6:55 AM 47.8 °F 33.6 °F 58% 29.83 in 10.0 mi SSW 12.7 mph 18.4 mph N/A   Clear
7:14 AM 47.7 °F 33.6 °F 58% 29.83 in 10.0 mi SSW 12.7 mph 17.3 mph N/A   Clear
7:35 AM 47.3 °F 34.0 °F 60% 29.83 in 10.0 mi SSW 12.7 mph - N/A   Clear
7:54 AM 47.8 °F 34.0 °F 59% 29.83 in 10.0 mi SSW 11.5 mph 17.3 mph N/A   Clear
8:15 AM 48.0 °F 34.3 °F 59% 29.82 in 10.0 mi SSW 12.7 mph 17.3 mph N/A   Clear
8:35 AM 49.3 °F 34.7 °F 57% 29.82 in 10.0 mi SSW 12.7 mph 18.4 mph N/A   Clear
8:54 AM 50.5 °F 34.9 °F 55% 29.81 in 10.0 mi SSW 16.1 mph - N/A   Clear
9:15 AM 52.2 °F 35.1 °F 52% 29.80 in 10.0 mi SSW 15.0 mph 18.4 mph N/A   Clear
9:35 AM 53.6 °F 35.2 °F 50% 29.80 in 10.0 mi SSW 16.1 mph 21.9 mph N/A   Clear
9:54 AM 54.5 °F 35.2 °F 48% 29.79 in 10.0 mi SSW 13.8 mph 21.9 mph N/A   Clear
10:15 AM 56.8 °F 35.4 °F 45% 29.78 in 10.0 mi SSW 17.3 mph 24.2 mph N/A   Clear
10:35 AM 58.1 °F 35.4 °F 43% 29.79 in 10.0 mi SW 19.6 mph 24.2 mph N/A   Clear
10:54 AM 59.0 °F 35.2 °F 41% 29.79 in 10.0 mi SSW 17.3 mph 23.0 mph N/A   Scattered Clouds
11:15 AM 61.0 °F 35.8 °F 39% 29.77 in 10.0 mi SSW 16.1 mph 26.5 mph N/A   Scattered Clouds
11:35 AM 63.1 °F 36.1 °F 37% 29.77 in 10.0 mi SW 16.1 mph 25.3 mph N/A   Scattered Clouds
11:54 AM 62.8 °F 36.0 °F 37% 29.76 in 10.0 mi SW 19.6 mph 27.6 mph N/A   Clear
12:15 PM 64.9 °F 36.5 °F 35% 29.74 in 10.0 mi SSW 20.7 mph 28.8 mph N/A   Clear
12:35 PM 65.1 °F 36.7 °F 35% 29.73 in 10.0 mi SW 20.7 mph 29.9 mph N/A   Clear
12:55 PM 64.6 °F 37.4 °F 37% 29.73 in 10.0 mi SW 19.6 mph 31.1 mph N/A   Clear
1:15 PM 66.4 °F 38.1 °F 35% 29.72 in 10.0 mi SW 17.3 mph 28.8 mph N/A   Clear
1:34 PM 66.9 °F 38.8 °F 36% 29.73 in 10.0 mi SW 23.0 mph 31.1 mph N/A   Clear
1:55 PM 67.3 °F 39.7 °F 36% 29.73 in 10.0 mi WSW 17.3 mph 27.6 mph N/A   Clear
2:15 PM 67.6 °F 39.0 °F 35% 29.73 in 10.0 mi WSW 21.9 mph 35.7 mph N/A   Scattered Clouds
2:34 PM 66.7 °F 39.4 °F 37% 29.72 in 10.0 mi SW 19.6 mph 29.9 mph N/A   Clear
2:55 PM 66.6 °F 40.1 °F 38% 29.72 in 10.0 mi SW 21.9 mph 28.8 mph N/A   Clear
3:15 PM 65.7 °F 40.3 °F 39% 29.75 in 10.0 mi WSW 19.6 mph 36.8 mph N/A   Clear
3:34 PM 64.9 °F 40.3 °F 40% 29.74 in 10.0 mi West 23.0 mph 29.9 mph N/A   Clear
3:55 PM 63.9 °F 41.0 °F 43% 29.71 in 10.0 mi WSW 17.3 mph 26.5 mph N/A   Clear
4:15 PM 64.6 °F 41.4 °F 43% 29.72 in 10.0 mi WSW 15.0 mph 20.7 mph N/A   Scattered Clouds
4:34 PM 64.0 °F 40.8 °F 43% 29.76 in 10.0 mi WSW 23.0 mph 33.4 mph N/A   Scattered Clouds
4:55 PM 63.0 °F 41.5 °F 45% 29.75 in 10.0 mi WSW 10.4 mph 25.3 mph N/A   Scattered Clouds
5:15 PM 63.0 °F 41.4 °F 45% 29.76 in 10.0 mi West 17.3 mph 27.6 mph N/A   Scattered Clouds
5:34 PM 60.4 °F 43.5 °F 54% 29.77 in 10.0 mi West 18.4 mph 28.8 mph N/A Rain Light Rain
5:55 PM 60.3 °F 43.5 °F 54% 29.77 in 10.0 mi West 16.1 mph 24.2 mph N/A   Scattered Clouds
6:14 PM 60.3 °F 43.5 °F 54% 29.78 in 10.0 mi West 16.1 mph 19.6 mph N/A Rain Light Rain
6:35 PM 59.9 °F 43.5 °F 55% 29.78 in 10.0 mi West 13.8 mph 20.7 mph N/A   Scattered Clouds
6:55 PM 57.2 °F 46.0 °F 66% 29.79 in 10.0 mi WNW 13.8 mph 20.7 mph N/A Rain Rain
7:14 PM 54.9 °F 49.5 °F 82% 29.82 in 10.0 mi WNW 10.4 mph - N/A Rain Rain
7:35 PM 54.1 °F 49.5 °F 84% 29.83 in 7.0 mi West 10.4 mph - N/A Rain Rain
7:55 PM 53.4 °F 49.3 °F 86% 29.83 in 10.0 mi West 9.2 mph - N/A   Drizzle
8:14 PM 53.2 °F 48.9 °F 85% 29.83 in 10.0 mi West 8.1 mph - N/A Rain Light Rain
8:35 PM 53.1 °F 48.9 °F 86% 29.84 in 10.0 mi West 5.8 mph - N/A Rain Light Rain
8:55 PM 52.9 °F 48.7 °F 86% 29.85 in 10.0 mi West 4.6 mph - N/A   Light Drizzle
9:14 PM 52.5 °F 48.6 °F 86% 29.86 in 10.0 mi West 4.6 mph - N/A   Scattered Clouds
9:35 PM 51.8 °F 48.7 °F 89% 29.87 in 10.0 mi West 4.6 mph - N/A   Scattered Clouds
9:55 PM 51.8 °F 48.9 °F 90% 29.89 in 10.0 mi West 4.6 mph - N/A   Scattered Clouds
10:15 PM 51.1 °F 48.2 °F 90% 29.90 in 10.0 mi WNW 3.5 mph - N/A   Clear
10:35 PM 51.4 °F 48.0 °F 88% 29.91 in 10.0 mi WSW 3.5 mph - N/A   Clear
10:54 PM 51.3 °F 47.8 °F 88% 29.91 in 10.0 mi West 3.5 mph - N/A   Clear
11:15 PM 49.8 °F 47.7 °F 92% 29.91 in 10.0 mi WNW 3.5 mph - N/A   Clear
11:35 PM 49.6 °F 47.8 °F 94% 29.91 in 10.0 mi Calm Calm - N/A   Clear
11:54 PM 48.2 °F 46.6 °F 94% 29.91 in 10.0 mi Calm Calm - N/A   Clear